Flag for U.S.A. Weather past 2 weeks in Baton Rouge, Louisiana, U.S.A.

Now
86 °F

Scattered clouds.


Feels Like: 90 °F
Forecast: 71 / 89 °F
Wind: 3 mph from Northwest

Location: Baton Rouge Metropolitan - Ryan Field

Current Time: Jul 22, 2014 at 2:50:03 PM

Latest Report: Jul 22, 2014 at 11:53 AM


Visibility: 10 mi

Pressure: 30.04 "Hg

Humidity: 57%

Dew point: 69 °F

Location of Baton RougeLocation

Historic Weather in Baton Rouge — Graph

°F

Baton Rouge temperature yesterday

Maximum temperature yesterday: 90 °F (at 2:53 PM)
Minimum temperature yesterday: 72 °F (at 5:53 AM)
Average temperature yesterday: 81 °F

Past Weeks' High & Low Weather Summary

 TemperatureHumidityPressure
High93 °F (Jul 7, 2:53 PM)97% (Jul 9, 2:53 AM)30.16 "Hg (Jul 9, 2:53 AM)
Low62 °F (Jul 17, 6:53 AM)41% (Jul 7, 4:53 PM)29.90 "Hg (Jul 18, 6:53 PM)
Average79 °F79%30.02 "Hg
* Reported Jul 7 11:53 AM — Jul 22 11:53 AM, Baton Rouge, Weather by CustomWeather, © 2014

Note: Actual official high and low records may vary slightly from our data, if they occured in-between our weather recording intervals... More about our weather records

Advertising

Baton Rouge weather history for previous 24 hours

 ConditionsComfort  
Time TempWeatherWind HumidityBarometerVisibility
11:53 AM
Jul 22
86 °FScattered clouds.3 mph57%30.04 "Hg10 mi
10:53 AM86 °FPassing clouds.5 mph57%30.04 "Hg10 mi
9:53 AM83 °FSunny.6 mph65%30.04 "Hg10 mi
8:53 AM80 °FSunny.No wind76%30.04 "Hg10 mi
7:53 AM76 °FSunny.3 mph85%30.03 "Hg10 mi
6:53 AM71 °FClear.No wind93%30.03 "Hg8 mi
5:53 AM71 °FClear.No wind93%30.02 "Hg9 mi
4:53 AM72 °FPassing clouds.No wind91%30.00 "Hg10 mi
3:53 AM73 °FClear.3 mph90%29.98 "Hg10 mi
2:53 AM72 °FClear.No wind93%30.00 "Hg10 mi
1:53 AM73 °FPassing clouds.No wind94%30.00 "Hg8 mi
12:53 AM73 °FClear.No wind94%30.01 "Hg7 mi
11:53 PM
Jul 21
74 °FClear.No wind94%30.00 "Hg8 mi
10:53 PM76 °FClear.No wind91%30.01 "Hg9 mi
9:53 PM77 °FClear.No wind85%30.00 "Hg10 mi
8:53 PM79 °FSunny.No wind79%30.00 "Hg10 mi
7:53 PM82 °FSunny.No wind74%29.99 "Hg10 mi
6:53 PM87 °FPassing clouds.5 mph59%29.98 "Hg10 mi
5:53 PM89 °FPassing clouds.6 mph55%29.97 "Hg10 mi
4:53 PM90 °FScattered clouds.6 mph54%29.98 "Hg10 mi
3:53 PM89 °FScattered clouds.6 mph55%30.00 "Hg10 mi
2:53 PM90 °FPassing clouds.9 mph54%30.01 "Hg10 mi
Weather by CustomWeather, © 2014

See weather overviewHow to use our weather pages